Time,TemperatureF,DewpointF,PressureIn,WindDirection,WindDirectionDegrees,WindSpeedMPH,WindSpeedGustMPH,Humidity,HourlyPrecipIn,Conditions,Clouds,dailyrainin,SoftwareType,DateUTC
2013-01-30 00:01:00,42.0,39.0,30.29,NNE,17,1.0,3.0,88,0.00,,,0.00,,2013-01-30 08:01:00,
2013-01-30 00:11:00,42.0,39.0,30.29,NNE,17,1.0,3.0,88,0.00,,,0.00,,2013-01-30 08:11:00,
2013-01-30 00:21:00,42.0,39.0,30.29,NNE,17,2.0,4.0,88,0.00,,,0.00,,2013-01-30 08:21:00,
2013-01-30 00:32:00,41.0,37.0,30.29,NNE,15,0.0,2.0,87,0.00,,,0.00,,2013-01-30 08:32:00,
2013-01-30 00:41:00,41.0,37.0,30.29,NNE,15,0.0,2.0,87,0.00,,,0.00,,2013-01-30 08:41:00,
2013-01-30 00:52:00,41.0,38.0,30.28,NNE,17,0.0,3.0,88,0.00,,,0.00,,2013-01-30 08:52:00,
2013-01-30 01:01:00,41.0,38.0,30.28,NNE,17,0.0,2.0,88,0.00,,,0.00,,2013-01-30 09:01:00,
2013-01-30 01:11:00,41.0,38.0,30.28,NNE,17,0.0,2.0,88,0.00,,,0.00,,2013-01-30 09:11:00,
2013-01-30 01:21:00,41.0,38.0,30.28,NNE,17,0.0,0.0,88,0.00,,,0.00,,2013-01-30 09:21:00,
2013-01-30 01:31:00,41.0,38.0,30.28,NNE,17,0.0,0.0,88,0.00,,,0.00,,2013-01-30 09:31:00,
2013-01-30 01:41:00,41.0,38.0,30.28,NNE,17,0.0,0.0,88,0.00,,,0.00,,2013-01-30 09:41:00,
2013-01-30 01:51:00,41.0,38.0,30.28,NNE,17,0.0,0.0,89,0.00,,,0.00,,2013-01-30 09:51:00,
2013-01-30 02:01:00,41.0,38.0,30.28,NNE,15,0.0,3.0,89,0.00,,,0.00,,2013-01-30 10:01:00,
2013-01-30 02:11:00,41.0,38.0,30.28,NNE,15,0.0,3.0,89,0.00,,,0.00,,2013-01-30 10:11:00,
2013-01-30 02:21:00,40.0,37.0,30.28,NNE,17,0.0,0.0,89,0.00,,,0.00,,2013-01-30 10:21:00,
2013-01-30 02:31:00,40.0,37.0,30.28,NNE,17,0.0,0.0,89,0.00,,,0.00,,2013-01-30 10:31:00,
2013-01-30 02:41:00,40.0,37.0,30.28,NNE,17,0.0,0.0,89,0.00,,,0.00,,2013-01-30 10:41:00,
2013-01-30 02:52:00,40.0,37.0,30.28,NNE,17,0.0,0.0,89,0.00,,,0.00,,2013-01-30 10:52:00,
2013-01-30 03:02:00,40.0,37.0,30.28,NNE,17,0.0,0.0,90,0.00,,,0.00,,2013-01-30 11:02:00,
2013-01-30 03:11:00,40.0,37.0,30.28,NNE,17,0.0,0.0,90,0.00,,,0.00,,2013-01-30 11:11:00,
2013-01-30 03:21:00,40.0,37.0,30.28,NNE,16,0.0,0.0,90,0.00,,,0.00,,2013-01-30 11:21:00,
2013-01-30 03:32:00,40.0,37.0,30.28,NNE,17,0.0,2.0,89,0.00,,,0.00,,2013-01-30 11:32:00,
2013-01-30 03:41:00,40.0,37.0,30.28,NNE,17,0.0,2.0,89,0.00,,,0.00,,2013-01-30 11:41:00,
2013-01-30 03:52:00,40.0,37.0,30.28,NNE,17,0.0,1.0,90,0.00,,,0.00,,2013-01-30 11:52:00,
2013-01-30 04:02:00,40.0,37.0,30.27,NNE,17,0.0,1.0,90,0.00,,,0.00,,2013-01-30 12:02:00,
2013-01-30 04:12:00,40.0,37.0,30.27,NNE,17,0.0,1.0,90,0.00,,,0.00,,2013-01-30 12:12:00,
2013-01-30 04:22:00,40.0,37.0,30.28,NNE,15,1.0,2.0,89,0.00,,,0.00,,2013-01-30 12:22:00,
2013-01-30 04:32:00,39.0,36.0,30.28,NNE,17,0.0,2.0,90,0.00,,,0.00,,2013-01-30 12:32:00,
2013-01-30 04:42:00,39.0,36.0,30.28,NNE,17,0.0,2.0,90,0.00,,,0.00,,2013-01-30 12:42:00,
2013-01-30 05:02:00,38.0,35.0,30.28,NNE,17,0.0,0.0,90,0.00,,,0.00,,2013-01-30 13:02:00,
2013-01-30 05:12:00,38.0,35.0,30.28,NNE,17,0.0,0.0,90,0.00,,,0.00,,2013-01-30 13:12:00,
2013-01-30 05:22:00,39.0,36.0,30.28,NNE,17,0.0,1.0,90,0.00,,,0.00,,2013-01-30 13:22:00,
2013-01-30 05:32:00,39.0,37.0,30.27,NNE,17,0.0,0.0,91,0.00,,,0.00,,2013-01-30 13:32:00,
2013-01-30 05:42:00,39.0,37.0,30.27,NNE,17,0.0,0.0,91,0.00,,,0.00,,2013-01-30 13:42:00,
2013-01-30 05:53:00,39.0,37.0,30.28,NNE,17,0.0,0.0,91,0.00,,,0.00,,2013-01-30 13:53:00,
2013-01-30 06:01:00,39.0,37.0,30.28,NNE,17,0.0,0.0,91,0.00,,,0.00,,2013-01-30 14:01:00,
2013-01-30 06:11:00,39.0,37.0,30.28,NNE,17,0.0,0.0,91,0.00,,,0.00,,2013-01-30 14:11:00,
2013-01-30 06:22:00,39.0,37.0,30.28,NNE,17,0.0,0.0,91,0.00,,,0.00,,2013-01-30 14:22:00,
2013-01-30 06:32:00,39.0,37.0,30.29,NNE,15,0.0,2.0,91,0.00,,,0.00,,2013-01-30 14:32:00,
2013-01-30 06:42:00,39.0,37.0,30.29,NNE,15,0.0,2.0,91,0.00,,,0.00,,2013-01-30 14:42:00,
2013-01-30 06:52:00,38.0,36.0,30.29,NNE,16,0.0,1.0,91,0.00,,,0.00,,2013-01-30 14:52:00,
2013-01-30 07:02:00,38.0,36.0,30.30,NNE,16,0.0,2.0,91,0.00,,,0.00,,2013-01-30 15:02:00,
2013-01-30 07:11:00,38.0,36.0,30.30,NNE,16,0.0,2.0,91,0.00,,,0.00,,2013-01-30 15:11:00,
2013-01-30 07:22:00,38.0,36.0,30.30,NNE,17,0.0,0.0,91,0.00,,,0.00,,2013-01-30 15:22:00,
2013-01-30 07:32:00,37.0,35.0,30.31,NNE,16,0.0,3.0,91,0.00,,,0.00,,2013-01-30 15:32:00,
2013-01-30 07:42:00,37.0,35.0,30.31,NNE,16,0.0,3.0,91,0.00,,,0.00,,2013-01-30 15:42:00,
2013-01-30 07:53:00,37.0,35.0,30.31,NNE,17,0.0,2.0,91,0.00,,,0.00,,2013-01-30 15:53:00,
2013-01-30 08:02:00,38.0,36.0,30.32,NNE,17,1.0,2.0,92,0.00,,,0.00,,2013-01-30 16:02:00,
2013-01-30 08:11:00,38.0,36.0,30.32,NNE,17,1.0,2.0,92,0.00,,,0.00,,2013-01-30 16:11:00,
2013-01-30 08:22:00,39.0,37.0,30.32,NNE,16,1.0,2.0,92,0.00,,,0.00,,2013-01-30 16:22:00,
2013-01-30 08:31:00,40.0,38.0,30.32,NNE,16,0.0,2.0,92,0.00,,,0.00,,2013-01-30 16:31:00,
2013-01-30 08:41:00,40.0,38.0,30.32,NNE,16,0.0,2.0,92,0.00,,,0.00,,2013-01-30 16:41:00,
2013-01-30 08:52:00,40.0,38.0,30.32,NNE,16,0.0,2.0,92,0.00,,,0.00,,2013-01-30 16:52:00,
2013-01-30 09:01:00,44.0,42.0,30.33,NNE,28,2.0,7.0,91,0.00,,,0.00,,2013-01-30 17:01:00,
2013-01-30 09:11:00,44.0,42.0,30.33,NNE,28,2.0,7.0,91,0.00,,,0.00,,2013-01-30 17:11:00,
2013-01-30 09:22:00,46.0,42.0,30.34,NNE,28,2.0,5.0,87,0.00,,,0.00,,2013-01-30 17:22:00,
2013-01-30 09:32:00,47.0,42.0,30.34,NNE,28,3.0,5.0,83,0.00,,,0.00,,2013-01-30 17:32:00,
2013-01-30 09:42:00,47.0,42.0,30.34,NNE,28,3.0,5.0,83,0.00,,,0.00,,2013-01-30 17:42:00,
2013-01-30 09:53:00,48.0,42.0,30.34,SSE,147,3.0,7.0,81,0.00,,,0.00,,2013-01-30 17:53:00,
2013-01-30 10:01:00,49.0,43.0,30.34,SSE,153,3.0,8.0,80,0.00,,,0.00,,2013-01-30 18:01:00,
2013-01-30 10:11:00,49.0,43.0,30.34,SSE,153,3.0,8.0,80,0.00,,,0.00,,2013-01-30 18:11:00,
2013-01-30 10:22:00,50.0,43.0,30.35,SSE,163,3.0,7.0,78,0.00,,,0.00,,2013-01-30 18:22:00,
2013-01-30 10:32:00,51.0,44.0,30.35,South,170,2.0,8.0,77,0.00,,,0.00,,2013-01-30 18:32:00,
2013-01-30 10:42:00,51.0,44.0,30.35,South,170,2.0,8.0,77,0.00,,,0.00,,2013-01-30 18:42:00,
2013-01-30 10:52:00,52.0,44.0,30.35,South,169,3.0,7.0,75,0.00,,,0.00,,2013-01-30 18:52:00,
2013-01-30 11:02:00,53.0,45.0,30.34,SSE,157,4.0,9.0,74,0.00,,,0.00,,2013-01-30 19:02:00,
2013-01-30 11:11:00,53.0,45.0,30.34,SSE,157,4.0,9.0,74,0.00,,,0.00,,2013-01-30 19:11:00,
2013-01-30 11:21:00,54.0,45.0,30.34,SE,142,4.0,8.0,72,0.00,,,0.00,,2013-01-30 19:21:00,
2013-01-30 11:32:00,55.0,46.0,30.34,SE,132,2.0,7.0,71,0.00,,,0.00,,2013-01-30 19:32:00,
2013-01-30 11:42:00,55.0,46.0,30.34,SE,132,2.0,7.0,71,0.00,,,0.00,,2013-01-30 19:42:00,
2013-01-30 11:52:00,56.0,46.0,30.33,SSE,166,3.0,8.0,70,0.00,,,0.00,,2013-01-30 19:52:00,
2013-01-30 12:02:00,56.0,46.0,30.33,SSE,166,3.0,8.0,70,0.00,,,0.00,,2013-01-30 20:02:00,
2013-01-30 12:11:00,56.0,46.0,30.33,SSE,166,3.0,8.0,70,0.00,,,0.00,,2013-01-30 20:11:00,
2013-01-30 12:21:00,57.0,46.0,30.32,SSE,153,5.0,9.0,67,0.00,,,0.00,,2013-01-30 20:21:00,
2013-01-30 12:32:00,57.0,46.0,30.32,SSE,153,5.0,9.0,67,0.00,,,0.00,,2013-01-30 20:32:00,
2013-01-30 12:42:00,57.0,46.0,30.32,SSE,153,5.0,9.0,67,0.00,,,0.00,,2013-01-30 20:42:00,
2013-01-30 12:52:00,58.0,46.0,30.31,South,176,4.0,9.0,64,0.00,,,0.00,,2013-01-30 20:52:00,
2013-01-30 13:03:00,59.0,47.0,30.30,SSE,153,3.0,7.0,65,0.00,,,0.00,,2013-01-30 21:03:00,
2013-01-30 13:11:00,59.0,47.0,30.30,SSE,153,3.0,7.0,65,0.00,,,0.00,,2013-01-30 21:11:00,
2013-01-30 13:22:00,60.0,47.0,30.29,SSW,205,3.0,8.0,62,0.00,,,0.00,,2013-01-30 21:22:00,
2013-01-30 13:31:00,61.0,47.0,30.28,WNW,283,5.0,7.0,59,0.00,,,0.00,,2013-01-30 21:31:00,
2013-01-30 13:42:00,61.0,47.0,30.28,WNW,283,5.0,7.0,59,0.00,,,0.00,,2013-01-30 21:42:00,
2013-01-30 13:52:00,61.0,47.0,30.28,WNW,283,5.0,7.0,59,0.00,,,0.00,,2013-01-30 21:52:00,
2013-01-30 14:02:00,60.0,47.0,30.27,SW,223,3.0,7.0,61,0.00,,,0.00,,2013-01-30 22:02:00,
2013-01-30 14:11:00,60.0,47.0,30.27,SW,223,3.0,7.0,61,0.00,,,0.00,,2013-01-30 22:11:00,
2013-01-30 14:21:00,60.0,46.0,30.27,WNW,282,3.0,4.0,60,0.00,,,0.00,,2013-01-30 22:21:00,
2013-01-30 14:32:00,60.0,46.0,30.27,WNW,283,0.0,3.0,60,0.00,,,0.00,,2013-01-30 22:32:00,
2013-01-30 14:41:00,60.0,46.0,30.27,WNW,283,0.0,3.0,60,0.00,,,0.00,,2013-01-30 22:41:00,
2013-01-30 14:52:00,60.0,46.0,30.27,WNW,283,0.0,3.0,60,0.00,,,0.00,,2013-01-30 22:52:00,
2013-01-30 15:01:00,61.0,47.0,30.27,WNW,289,0.0,3.0,60,0.00,,,0.00,,2013-01-30 23:01:00,
2013-01-30 15:12:00,61.0,47.0,30.27,WNW,289,0.0,3.0,60,0.00,,,0.00,,2013-01-30 23:12:00,
2013-01-30 15:22:00,62.0,47.0,30.26,SE,146,0.0,5.0,58,0.00,,,0.00,,2013-01-30 23:22:00,
2013-01-30 15:32:00,62.0,47.0,30.26,ENE,71,1.0,4.0,57,0.00,,,0.00,,2013-01-30 23:32:00,
2013-01-30 15:42:00,62.0,47.0,30.26,ENE,71,1.0,4.0,57,0.00,,,0.00,,2013-01-30 23:42:00,
2013-01-30 15:52:00,63.0,48.0,30.26,WNW,300,1.0,4.0,58,0.00,,,0.00,,2013-01-30 23:52:00,
2013-01-30 16:01:00,63.0,48.0,30.26,WNW,300,0.0,0.0,57,0.00,,,0.00,,2013-01-31 00:01:00,
2013-01-30 16:11:00,63.0,48.0,30.26,WNW,300,0.0,0.0,57,0.00,,,0.00,,2013-01-31 00:11:00,
2013-01-30 16:21:00,64.0,47.0,30.26,West,265,0.0,3.0,55,0.00,,,0.00,,2013-01-31 00:21:00,
2013-01-30 16:31:00,63.0,48.0,30.26,SW,225,0.0,2.0,58,0.00,,,0.00,,2013-01-31 00:31:00,
2013-01-30 16:42:00,63.0,48.0,30.26,SW,225,0.0,2.0,58,0.00,,,0.00,,2013-01-31 00:42:00,
2013-01-30 16:52:00,64.0,49.0,30.26,SW,225,0.0,1.0,58,0.00,,,0.00,,2013-01-31 00:52:00,
2013-01-30 17:01:00,64.0,48.0,30.25,SSE,166,0.0,3.0,57,0.00,,,0.00,,2013-01-31 01:01:00,
2013-01-30 17:11:00,64.0,48.0,30.25,SSE,166,0.0,3.0,57,0.00,,,0.00,,2013-01-31 01:11:00,
2013-01-30 17:21:00,63.0,48.0,30.25,ESE,117,2.0,3.0,58,0.00,,,0.00,,2013-01-31 01:21:00,
2013-01-30 17:31:00,62.0,47.0,30.24,SE,134,1.0,4.0,59,0.00,,,0.00,,2013-01-31 01:31:00,
2013-01-30 17:41:00,62.0,47.0,30.24,SE,134,1.0,4.0,59,0.00,,,0.00,,2013-01-31 01:41:00,
2013-01-30 17:52:00,61.0,48.0,30.25,ESE,121,1.0,3.0,62,0.00,,,0.00,,2013-01-31 01:52:00,
2013-01-30 18:01:00,59.0,47.0,30.25,ESE,121,0.0,2.0,64,0.00,,,0.00,,2013-01-31 02:01:00,
2013-01-30 18:11:00,59.0,47.0,30.25,ESE,121,0.0,2.0,64,0.00,,,0.00,,2013-01-31 02:11:00,
2013-01-30 18:21:00,58.0,47.0,30.25,ESE,121,0.0,0.0,66,0.00,,,0.00,,2013-01-31 02:21:00,
2013-01-30 18:32:00,56.0,46.0,30.25,ESE,121,0.0,0.0,69,0.00,,,0.00,,2013-01-31 02:32:00,
2013-01-30 18:41:00,56.0,46.0,30.25,ESE,121,0.0,0.0,69,0.00,,,0.00,,2013-01-31 02:41:00,
2013-01-30 18:51:00,56.0,46.0,30.25,ESE,121,0.0,0.0,69,0.00,,,0.00,,2013-01-31 02:51:00,
2013-01-30 19:02:00,54.0,45.0,30.26,ESE,121,0.0,0.0,72,0.00,,,0.00,,2013-01-31 03:02:00,
2013-01-30 19:11:00,54.0,45.0,30.26,ESE,121,0.0,0.0,72,0.00,,,0.00,,2013-01-31 03:11:00,
2013-01-30 19:21:00,53.0,45.0,30.26,ESE,121,0.0,0.0,75,0.00,,,0.00,,2013-01-31 03:21:00,
2013-01-30 19:32:00,52.0,45.0,30.26,ESE,121,0.0,0.0,76,0.00,,,0.00,,2013-01-31 03:32:00,
2013-01-30 19:41:00,52.0,45.0,30.26,ESE,121,0.0,0.0,76,0.00,,,0.00,,2013-01-31 03:41:00,
2013-01-30 19:51:00,51.0,44.0,30.26,ESE,121,0.0,0.0,77,0.00,,,0.00,,2013-01-31 03:51:00,
2013-01-30 20:02:00,50.0,43.0,30.26,ESE,121,0.0,0.0,78,0.00,,,0.00,,2013-01-31 04:02:00,
2013-01-30 20:11:00,50.0,43.0,30.26,ESE,121,0.0,0.0,78,0.00,,,0.00,,2013-01-31 04:11:00,
2013-01-30 20:22:00,49.0,43.0,30.26,ESE,121,0.0,0.0,81,0.00,,,0.00,,2013-01-31 04:22:00,
2013-01-30 20:31:00,49.0,44.0,30.26,ESE,121,0.0,0.0,82,0.00,,,0.00,,2013-01-31 04:31:00,
2013-01-30 20:41:00,49.0,44.0,30.26,ESE,121,0.0,0.0,82,0.00,,,0.00,,2013-01-31 04:41:00,
2013-01-30 20:51:00,48.0,43.0,30.27,ESE,121,0.0,0.0,82,0.00,,,0.00,,2013-01-31 04:51:00,
2013-01-30 21:03:00,48.0,43.0,30.27,ESE,121,0.0,0.0,82,0.00,,,0.00,,2013-01-31 05:03:00,
2013-01-30 21:11:00,48.0,43.0,30.27,ESE,121,0.0,0.0,82,0.00,,,0.00,,2013-01-31 05:11:00,
2013-01-30 21:21:00,46.0,41.0,30.27,ESE,121,0.0,0.0,84,0.00,,,0.00,,2013-01-31 05:21:00,
2013-01-30 21:31:00,46.0,41.0,30.27,ESE,121,0.0,0.0,84,0.00,,,0.00,,2013-01-31 05:31:00,
2013-01-30 21:41:00,45.0,40.0,30.26,ESE,121,0.0,0.0,84,0.00,,,0.00,,2013-01-31 05:41:00,
2013-01-30 21:51:00,45.0,40.0,30.26,ESE,121,0.0,0.0,84,0.00,,,0.00,,2013-01-31 05:51:00,
2013-01-30 22:01:00,45.0,40.0,30.26,ESE,121,0.0,0.0,84,0.00,,,0.00,,2013-01-31 06:01:00,